Weather History for Annapolis Naval Academy, MD

Change the Weather History Date:

Thursday, October 3, 2013

  Actual Average (KBWI) Record (KBWI)
Temperature  
Mean Temperature 70 °F 61 °F  
Max Temperature 78 °F 71 °F 92 °F (1919)
Min Temperature 64 °F 50 °F 34 °F (1974)
Degree Days  
Heating Degree Days 0 6  
Month to date heating degree days 16  
Since 1 July heating degree days 69  
Cooling Degree Days 6 1  
Month to date cooling degree days 4  
Year to date cooling degree days 1149  
Growing Degree Days 20 (Base 50)    
Moisture  
Dew Point 65 °F    
Average Humidity 82    
Maximum Humidity 93    
Minimum Humidity 69    
Precipitation  
Precipitation 0.00 in 0.12 in 1.40 in (1927)
Month to date precipitation 0.34  
Year to date precipitation 32.22  
Snow  
Snow 0.00 in 0.00 in - ()
Month to date snowfall 0.0  
Since 1 July snowfall 0.0  
Snow Depth -    
Sea Level Pressure  
Sea Level Pressure 30.08 in    
Wind  
Wind Speed 2 mph (ESE)    
Max Wind Speed 9 mph    
Max Gust Speed -    
Visibility 8 miles    
Events      
T = Trace of Precipitation, MM = Missing Value Source: NWS Daily Summary

Daily Weather History Graph

Daily Weather History Graph

Search for Another Location

Airport:

Trip Planner

Search our weather history database for the weather conditions in past years. The results will help you decide how hot, cold, wet, or windy it might be!

Date:

Astronomy

Oct. 03, 2013 Rise Set
Actual Time 7:04 AM EDT 6:45 PM EDT
Civil Twilight 6:37 AM EDT 7:11 PM EDT
Nautical Twilight 6:06 AM EDT 7:42 PM EDT
Astronomical Twilight 5:35 AM EDT 8:13 PM EDT
Moon 5:35 AM EDT (10/3) 5:52 PM EDT (10/3)
Length of Visible Light 12h 34m
Length of Day
11h 41m
Waning Crescent, 2% of the Moon is Illuminated
Oct 3
Waning Crescent
Oct 4
New
Oct 11
First Quarter
Oct 18
Full
Oct 26
Last Quarter

Hourly Weather History & Observations

Time (EDT) Temp. Dew Point Humidity Pressure Visibility Wind Dir Wind Speed Gust Speed Precip Events Conditions
12:54 AM 68.0 °F 63.0 °F 84% 30.06 in 10.0 mi Calm Calm - N/A   Clear
1:54 AM 68.0 °F 62.1 °F 81% 30.06 in 10.0 mi WNW 3.5 mph - N/A   Clear
2:54 AM 66.0 °F 62.1 °F 87% 30.07 in 10.0 mi Calm Calm - N/A   Clear
3:54 AM 66.0 °F 60.1 °F 81% 30.06 in 10.0 mi Calm Calm - N/A   Clear
4:54 AM 64.9 °F 62.1 °F 90% 30.07 in 10.0 mi Calm Calm - N/A   Clear
5:54 AM 64.0 °F 60.1 °F 87% 30.08 in 10.0 mi Calm Calm - N/A   Clear
6:54 AM 64.0 °F 62.1 °F 93% 30.10 in 8.0 mi Calm Calm - N/A   Clear
7:54 AM 66.0 °F 64.0 °F 93% 30.11 in 6.0 mi Calm Calm - N/A   Clear
8:54 AM 68.0 °F 64.0 °F 87% 30.12 in 6.0 mi NNW 4.6 mph - N/A   Clear
9:54 AM 73.0 °F 64.0 °F 73% 30.12 in 8.0 mi NNE 4.6 mph - N/A   Clear
10:54 AM 75.9 °F 64.9 °F 69% 30.12 in 8.0 mi Calm Calm - N/A   Clear
11:54 AM 77.0 °F 66.0 °F 69% 30.12 in 7.0 mi Calm Calm - N/A   Clear
12:54 PM 75.9 °F 66.0 °F 71% 30.10 in 7.0 mi Calm Calm - N/A   Clear
1:54 PM 75.9 °F 68.0 °F 76% 30.08 in 6.0 mi SE 8.1 mph - N/A   Haze
2:54 PM 75.0 °F 64.9 °F 71% 30.07 in 7.0 mi SE 6.9 mph - N/A   Clear
3:54 PM 73.9 °F 68.0 °F 82% 30.06 in 6.0 mi ESE 8.1 mph - N/A   Haze
4:54 PM 73.9 °F 69.1 °F 85% 30.06 in 6.0 mi SE 9.2 mph - N/A   Haze
5:54 PM 75.0 °F 66.9 °F 76% 30.06 in 8.0 mi Variable 3.5 mph - N/A   Clear
6:54 PM 73.9 °F 68.0 °F 82% 30.06 in 8.0 mi ESE 4.6 mph - N/A   Scattered Clouds
7:54 PM 73.0 °F 69.1 °F 87% 30.07 in 9.0 mi ESE 3.5 mph - N/A   Partly Cloudy
8:54 PM 72.0 °F 68.0 °F 87% 30.07 in 8.0 mi Calm Calm - N/A   Clear
9:54 PM 70.0 °F 68.0 °F 93% 30.07 in 7.0 mi Calm Calm - N/A   Clear
10:54 PM 70.0 °F 68.0 °F 93% 30.09 in 7.0 mi Calm Calm - N/A   Clear